SXS1T LTAI-EDDL

Flight info

Callsign SXS1T
Flight time N/A
Altitude 34000
Route EKNUD1K/18L EKNUD UQ26 DIGBO UL615 VADEN DCT UTEKA/N0449F360 DCT BABIT DCT SASAL DCT LAMSI DCT TESDU DCT AMETU T852 TINSA T854 DOMUX DOMUX1A
Aircraft A320/M-SDE3FGHIRWY/LB1

Departure

Time 2026-05-05 15:21
Airport Antalya International Airport (LTAI)

Arrival

Time N/A
Airport Düsseldorf Airport (EDDL)
Time Latitude Longitude Altitude Speed Heading
2026-05-05 15:03 36.89691 30.80138 182 ft 0 kts 354°
2026-05-05 15:11 36.89690 30.80138 182 ft 2 kts 354°
2026-05-05 15:12 36.89674 30.80140 182 ft 2 kts 356°
2026-05-05 15:12 36.89658 30.80141 182 ft 2 kts 360°
2026-05-05 15:12 36.89641 30.80140 181 ft 2 kts
2026-05-05 15:12 36.89626 30.80135 182 ft 2 kts 54°
2026-05-05 15:13 36.89621 30.80120 181 ft 1 kts 98°
2026-05-05 15:13 36.89622 30.80116 182 ft 0 kts 99°
2026-05-05 15:15 36.89621 30.80120 182 ft 1 kts 102°
2026-05-05 15:15 36.89616 30.80135 182 ft 3 kts 116°
2026-05-05 15:15 36.89606 30.80162 181 ft 4 kts 108°
2026-05-05 15:16 36.89599 30.80228 181 ft 12 kts 96°
2026-05-05 15:16 36.89588 30.80346 181 ft 15 kts 97°
2026-05-05 15:16 36.89576 30.80478 181 ft 16 kts 94°
2026-05-05 15:16 36.89564 30.80620 181 ft 17 kts 97°
2026-05-05 15:17 36.89627 30.80695 181 ft 14 kts
2026-05-05 15:17 36.89728 30.80709 182 ft 15 kts
2026-05-05 15:17 36.89831 30.80723 183 ft 15 kts
2026-05-05 15:17 36.89939 30.80738 183 ft 16 kts
2026-05-05 15:18 36.90050 30.80754 190 ft 16 kts
2026-05-05 15:18 36.90165 30.80772 185 ft 17 kts
2026-05-05 15:18 36.90287 30.80789 190 ft 20 kts
2026-05-05 15:18 36.90439 30.80808 200 ft 23 kts
2026-05-05 15:19 36.90603 30.80831 187 ft 24 kts
2026-05-05 15:19 36.90772 30.80856 188 ft 25 kts
2026-05-05 15:19 36.90947 30.80879 189 ft 26 kts
2026-05-05 15:19 36.91099 30.80901 190 ft 18 kts 17°
2026-05-05 15:20 36.91143 30.81007 190 ft 14 kts 94°
2026-05-05 15:20 36.91115 30.81125 199 ft 13 kts 127°
2026-05-05 15:20 36.91040 30.81130 199 ft 12 kts 189°
2026-05-05 15:20 36.90846 30.81100 202 ft 57 kts 186°
2026-05-05 15:21 36.90259 30.81020 186 ft 112 kts 186°
2026-05-05 15:21 36.89319 30.80890 180 ft 155 kts 186°
2026-05-05 15:21 36.88192 30.80774 580 ft 163 kts 176°
2026-05-05 15:21 36.87083 30.80951 1177 ft 162 kts 173°
2026-05-05 15:22 36.85963 30.81155 1748 ft 163 kts 172°
2026-05-05 15:22 36.84790 30.81368 2073 ft 180 kts 172°
2026-05-05 15:22 36.83472 30.81611 2260 ft 203 kts 171°
2026-05-05 15:22 36.82013 30.81881 2555 ft 219 kts 171°
2026-05-05 15:23 36.80472 30.82163 3085 ft 227 kts 170°
2026-05-05 15:23 36.78946 30.82774 3545 ft 240 kts 154°
2026-05-05 15:23 36.77363 30.83716 3824 ft 264 kts 153°
2026-05-05 15:23 36.75686 30.84774 4385 ft 274 kts 146°
2026-05-05 15:24 36.74316 30.86410 5067 ft 276 kts 120°
2026-05-05 15:24 36.73663 30.88634 5781 ft 275 kts 94°
2026-05-05 15:24 36.73475 30.91015 6519 ft 278 kts 91°
2026-05-05 15:24 36.73295 30.93438 7208 ft 282 kts 93°
2026-05-05 15:25 36.73106 30.95890 7896 ft 287 kts 94°
2026-05-05 15:25 36.72909 30.98387 8581 ft 291 kts 93°
2026-05-05 15:25 36.72882 31.00914 9261 ft 292 kts 77°
2026-05-05 15:25 36.73568 31.03263 9925 ft 289 kts 52°
2026-05-05 15:26 36.74917 31.05081 10454 ft 289 kts 31°
2026-05-05 15:26 36.76776 31.06135 10596 ft 303 kts
2026-05-05 15:26 36.78925 31.06154 10721 ft 319 kts 349°
2026-05-05 15:26 36.81189 31.05721 10893 ft 337 kts 349°
2026-05-05 15:27 36.83535 31.05271 11353 ft 345 kts 350°
2026-05-05 15:27 36.85914 31.04820 11981 ft 347 kts 350°
2026-05-05 15:27 36.88324 31.04368 12476 ft 352 kts 350°
2026-05-05 15:27 36.90768 31.03913 13008 ft 358 kts 350°
2026-05-05 15:28 36.93241 31.03458 13622 ft 360 kts 351°
2026-05-05 15:28 36.95705 31.03007 14163 ft 363 kts 350°
2026-05-05 15:28 36.98216 31.02549 14690 ft 366 kts 350°
2026-05-05 15:28 37.00750 31.02083 15191 ft 369 kts 349°
2026-05-05 15:29 37.03301 31.01612 15685 ft 373 kts 350°
2026-05-05 15:29 37.05877 31.01135 16195 ft 376 kts 350°
2026-05-05 15:29 37.08476 31.00652 16722 ft 378 kts 350°
2026-05-05 15:29 37.11087 31.00164 17283 ft 381 kts 349°
2026-05-05 15:30 37.13716 30.99672 17835 ft 384 kts 349°
2026-05-05 15:30 37.16367 30.99177 18388 ft 386 kts 349°
2026-05-05 15:30 37.19033 30.98682 18882 ft 389 kts 349°
2026-05-05 15:30 37.21718 30.98186 19415 ft 391 kts 349°
2026-05-05 15:31 37.24415 30.97687 19926 ft 393 kts 349°
2026-05-05 15:31 37.27123 30.97185 20387 ft 395 kts 349°
2026-05-05 15:31 37.29841 30.96678 20878 ft 396 kts 349°
2026-05-05 15:31 37.32571 30.96169 21362 ft 397 kts 348°
2026-05-05 15:32 37.35314 30.95658 21793 ft 400 kts 348°
2026-05-05 15:32 37.38076 30.95144 22225 ft 402 kts 348°
2026-05-05 15:32 37.40853 30.94624 22653 ft 404 kts 348°
2026-05-05 15:32 37.43643 30.94102 23082 ft 406 kts 348°
2026-05-05 15:33 37.46442 30.93576 23507 ft 408 kts 348°
2026-05-05 15:33 37.49257 30.93046 23871 ft 409 kts 348°
2026-05-05 15:33 37.52078 30.92516 24193 ft 411 kts 348°
2026-05-05 15:33 37.54914 30.91989 24517 ft 413 kts 348°
2026-05-05 15:34 37.57762 30.91460 24832 ft 415 kts 348°
2026-05-05 15:34 37.60629 30.90924 25132 ft 417 kts 348°
2026-05-05 15:34 37.63504 30.90381 25439 ft 419 kts 348°
2026-05-05 15:34 37.66390 30.89835 25772 ft 421 kts 348°
2026-05-05 15:35 37.69252 30.89295 26082 ft 422 kts 348°
2026-05-05 15:35 37.72162 30.88747 26392 ft 424 kts 348°
2026-05-05 15:35 37.75083 30.88196 26813 ft 423 kts 348°
2026-05-05 15:35 37.77994 30.87651 27247 ft 422 kts 348°
2026-05-05 15:36 37.80896 30.87110 27668 ft 421 kts 347°
2026-05-05 15:36 37.83798 30.86565 28061 ft 420 kts 347°
2026-05-05 15:36 37.86682 30.86018 28483 ft 419 kts 347°
2026-05-05 15:36 37.89566 30.85469 28924 ft 418 kts 347°
2026-05-05 15:37 37.92445 30.84920 29323 ft 418 kts 347°
2026-05-05 15:37 37.95320 30.84370 29731 ft 418 kts 347°
2026-05-05 15:37 37.98193 30.83824 30141 ft 417 kts 347°
2026-05-05 15:37 38.01058 30.83282 30498 ft 416 kts 348°
2026-05-05 15:38 38.03923 30.82739 30851 ft 416 kts 348°
2026-05-05 15:38 38.06779 30.82195 31196 ft 415 kts 348°
2026-05-05 15:38 38.09635 30.81650 31553 ft 414 kts 348°
2026-05-05 15:38 38.12498 30.81104 31903 ft 414 kts 348°
2026-05-05 15:39 38.15351 30.80577 32244 ft 414 kts 349°
2026-05-05 15:39 38.18209 30.80091 32585 ft 414 kts 350°
2026-05-05 15:39 38.21066 30.79629 32931 ft 414 kts 350°
2026-05-05 15:39 38.23925 30.79179 33274 ft 414 kts 351°
2026-05-05 15:40 38.26778 30.78731 33616 ft 413 kts 351°
2026-05-05 15:40 38.29626 30.78279 33934 ft 413 kts 351°
2026-05-05 15:40 38.32484 30.77815 34054 ft 416 kts 351°
2026-05-05 15:41 38.38312 30.76842 34049 ft 429 kts 351°
2026-05-05 15:41 38.44230 30.75846 34051 ft 433 kts 351°
2026-05-05 15:42 38.50211 30.74861 34051 ft 434 kts 351°
2026-05-05 15:42 38.56193 30.73873 34051 ft 434 kts 351°
2026-05-05 15:43 38.62175 30.72876 34056 ft 434 kts 351°
2026-05-05 15:43 38.68168 30.71880 34060 ft 434 kts 351°
2026-05-05 15:44 38.74165 30.70880 34068 ft 435 kts 351°
2026-05-05 15:44 38.80159 30.69874 34073 ft 435 kts 351°
2026-05-05 15:45 38.86051 30.68293 34071 ft 432 kts 338°
2026-05-05 15:45 38.91457 30.64981 34071 ft 430 kts 332°
2026-05-05 15:46 38.96798 30.61494 34076 ft 431 kts 332°
2026-05-05 15:46 39.02132 30.58002 34083 ft 430 kts 332°
2026-05-05 15:47 39.07472 30.54519 34086 ft 430 kts 332°
2026-05-05 15:47 39.12802 30.51032 34085 ft 430 kts 332°
2026-05-05 15:48 39.18132 30.47541 34083 ft 430 kts 332°
2026-05-05 15:48 39.23463 30.44049 34093 ft 430 kts 333°
2026-05-05 15:49 39.28792 30.40545 34090 ft 430 kts 333°
2026-05-05 15:49 39.34087 30.37067 34077 ft 430 kts 332°
2026-05-05 15:50 39.39420 30.33547 34088 ft 431 kts 332°
2026-05-05 15:50 39.44756 30.30015 34089 ft 431 kts 332°
2026-05-05 15:51 39.50105 30.26489 34092 ft 432 kts 334°
2026-05-05 15:51 39.55599 30.23335 34093 ft 432 kts 338°
2026-05-05 15:52 39.61198 30.20489 34104 ft 432 kts 338°
2026-05-05 15:52 39.66793 30.17624 34104 ft 432 kts 338°
2026-05-05 15:53 39.72359 30.14670 34113 ft 432 kts 337°
2026-05-05 15:53 39.77906 30.11667 34103 ft 432 kts 337°
2026-05-05 15:54 39.83460 30.08659 34094 ft 433 kts 337°
2026-05-05 15:54 39.89030 30.05667 34090 ft 433 kts 337°
2026-05-05 15:55 39.94572 30.02687 34100 ft 434 kts 337°
2026-05-05 15:55 40.00148 29.99680 34099 ft 434 kts 337°
2026-05-05 15:56 40.05723 29.96670 34101 ft 434 kts 337°
2026-05-05 15:56 40.10390 29.94144 34090 ft 434 kts 337°
2026-05-05 15:57 40.15917 29.91144 34092 ft 434 kts 337°
2026-05-05 15:57 40.21487 29.88110 34093 ft 434 kts 337°
2026-05-05 15:58 40.27019 29.85100 34094 ft 434 kts 338°
2026-05-05 15:58 40.32591 29.82066 34084 ft 434 kts 337°
2026-05-05 15:59 40.38171 29.79021 34072 ft 435 kts 337°
2026-05-05 15:59 40.43765 29.75957 34086 ft 436 kts 337°
2026-05-05 16:00 40.49365 29.72875 34088 ft 436 kts 337°
2026-05-05 16:00 40.54958 29.69801 34096 ft 436 kts 338°
2026-05-05 16:01 40.60554 29.66723 34097 ft 436 kts 337°
2026-05-05 16:01 40.66079 29.63423 34097 ft 436 kts 329°
2026-05-05 16:02 40.70929 29.58620 34086 ft 437 kts 322°
2026-05-05 16:02 40.75674 29.53613 34081 ft 437 kts 322°
2026-05-05 16:03 40.80397 29.48638 34073 ft 438 kts 322°
2026-05-05 16:03 40.85153 29.43614 34073 ft 439 kts 322°
2026-05-05 16:04 40.89930 29.38556 34085 ft 440 kts 322°
2026-05-05 16:04 40.94702 29.33490 34091 ft 440 kts 322°
2026-05-05 16:05 40.99468 29.28410 34091 ft 440 kts 322°
2026-05-05 16:05 41.04242 29.23321 34082 ft 441 kts 322°
2026-05-05 16:06 41.09028 29.18219 34075 ft 442 kts 322°
2026-05-05 16:06 41.13489 29.12629 34079 ft 444 kts 309°
2026-05-05 16:07 41.16950 29.05829 34080 ft 445 kts 304°
2026-05-05 16:07 41.20369 28.98974 34083 ft 445 kts 305°
2026-05-05 16:08 41.23802 28.92115 34075 ft 447 kts 305°
2026-05-05 16:08 41.27217 28.85279 34076 ft 447 kts 305°
2026-05-05 16:09 41.30655 28.78375 34085 ft 448 kts 304°
2026-05-05 16:09 41.34088 28.71443 34081 ft 449 kts 305°
2026-05-05 16:10 41.37524 28.64496 34079 ft 450 kts 305°
2026-05-05 16:10 41.40969 28.57536 34085 ft 450 kts 305°
2026-05-05 16:11 41.44406 28.50563 34090 ft 451 kts 304°
2026-05-05 16:12 41.51250 28.36593 34099 ft 450 kts 305°
2026-05-05 16:13 41.59805 28.19093 34086 ft 450 kts 304°
2026-05-05 16:13 41.63228 28.12075 34088 ft 451 kts 304°
2026-05-05 16:14 41.70054 27.98015 34092 ft 451 kts 304°
2026-05-05 16:15 41.76840 27.83953 34095 ft 451 kts 304°
2026-05-05 16:16 41.83640 27.69823 34082 ft 451 kts 304°
2026-05-05 16:17 41.88713 27.59230 34084 ft 450 kts 304°
2026-05-05 16:18 41.93758 27.48620 34078 ft 449 kts 304°
2026-05-05 16:19 41.98785 27.38053 34094 ft 446 kts 304°
2026-05-05 16:19 42.03784 27.27481 34068 ft 447 kts 304°
2026-05-05 16:20 42.10201 27.13138 34066 ft 447 kts 301°
2026-05-05 16:22 42.17624 26.94845 34066 ft 445 kts 301°
2026-05-05 16:23 42.23617 26.80321 34064 ft 441 kts 302°
2026-05-05 16:23 42.28058 26.69472 34059 ft 440 kts 302°
2026-05-05 16:24 42.31006 26.62249 34043 ft 438 kts 302°
2026-05-05 16:25 42.35401 26.51439 34053 ft 437 kts 302°
2026-05-05 16:25 42.39771 26.40649 34047 ft 436 kts 302°
2026-05-05 16:26 42.45557 26.26303 34059 ft 432 kts 302°
2026-05-05 16:27 42.48432 26.19158 34057 ft 432 kts 302°
2026-05-05 16:27 42.51302 26.12013 34052 ft 431 kts 302°
2026-05-05 16:28 42.54162 26.04872 34028 ft 431 kts 302°
2026-05-05 16:28 42.56995 25.97765 34037 ft 431 kts 302°
2026-05-05 16:29 42.59837 25.90610 34039 ft 431 kts 302°
2026-05-05 16:29 42.62673 25.83457 34037 ft 430 kts 302°
2026-05-05 16:30 42.65509 25.76312 34031 ft 430 kts 302°
2026-05-05 16:30 42.68340 25.69155 34038 ft 429 kts 301°
2026-05-05 16:31 42.71156 25.62001 34039 ft 429 kts 301°
2026-05-05 16:31 42.73967 25.54842 34039 ft 429 kts 301°
2026-05-05 16:32 42.76775 25.47689 34030 ft 428 kts 301°
2026-05-05 16:32 42.79568 25.40538 34029 ft 427 kts 301°
2026-05-05 16:33 42.82354 25.33402 34032 ft 427 kts 301°
2026-05-05 16:33 42.85137 25.26247 34036 ft 427 kts 301°
2026-05-05 16:34 42.87909 25.19100 34036 ft 427 kts 301°
2026-05-05 16:34 42.90664 25.11993 34035 ft 426 kts 301°
2026-05-05 16:35 42.93436 25.04839 34037 ft 426 kts 301°
2026-05-05 16:35 42.96193 24.97682 34037 ft 426 kts 301°
2026-05-05 16:36 42.98950 24.90512 34026 ft 426 kts 301°
2026-05-05 16:36 43.01700 24.83347 34023 ft 426 kts 301°
2026-05-05 16:37 43.04446 24.76164 34025 ft 426 kts 301°
2026-05-05 16:37 43.07189 24.68978 34021 ft 426 kts 301°
2026-05-05 16:38 43.09923 24.61791 34014 ft 426 kts 300°
2026-05-05 16:38 43.12652 24.54601 34025 ft 425 kts 300°
2026-05-05 16:39 43.15373 24.47419 34030 ft 425 kts 300°
2026-05-05 16:39 43.18088 24.40231 34025 ft 425 kts 300°
2026-05-05 16:40 43.20775 24.33090 34017 ft 424 kts 300°
2026-05-05 16:40 43.23475 24.25904 34020 ft 424 kts 300°
2026-05-05 16:41 43.26165 24.18723 34021 ft 423 kts 300°
2026-05-05 16:41 43.28851 24.11534 34022 ft 423 kts 300°
2026-05-05 16:42 43.31530 24.04342 34009 ft 423 kts 300°
2026-05-05 16:42 43.34206 23.97153 34017 ft 423 kts 300°
2026-05-05 16:43 43.36880 23.89958 34012 ft 423 kts 300°
2026-05-05 16:43 43.39549 23.82743 34016 ft 423 kts 300°
2026-05-05 16:44 43.42209 23.75532 33998 ft 423 kts 299°
2026-05-05 16:44 43.44866 23.68314 34012 ft 423 kts 299°
2026-05-05 16:45 43.47519 23.61086 34006 ft 423 kts 299°
2026-05-05 16:45 43.50153 23.53901 34008 ft 423 kts 299°
2026-05-05 16:46 43.52797 23.46659 33995 ft 423 kts 299°
2026-05-05 16:46 43.55442 23.39404 33988 ft 424 kts 299°
2026-05-05 16:47 43.58080 23.32139 33990 ft 424 kts 299°
2026-05-05 16:47 43.60711 23.24860 33989 ft 424 kts 299°
2026-05-05 16:48 43.63346 23.17581 33971 ft 424 kts 298°
2026-05-05 16:48 43.65980 23.10281 33976 ft 425 kts 298°
2026-05-05 16:49 43.68172 23.04199 33988 ft 426 kts 298°
2026-05-05 16:49 43.70802 22.96870 33985 ft 426 kts 298°
2026-05-05 16:50 43.73423 22.89519 33976 ft 426 kts 298°
2026-05-05 16:50 43.76041 22.82165 33978 ft 426 kts 298°
2026-05-05 16:51 43.78663 22.74799 33982 ft 427 kts 298°
2026-05-05 16:51 43.81285 22.67429 33983 ft 427 kts 298°
2026-05-05 16:52 43.83896 22.60053 33986 ft 427 kts 297°
2026-05-05 16:52 43.86499 22.52665 33978 ft 426 kts 297°
2026-05-05 16:53 43.89080 22.45334 33986 ft 426 kts 297°
2026-05-05 16:53 43.91938 22.38174 33988 ft 424 kts 308°
2026-05-05 16:54 43.95748 22.31941 33987 ft 424 kts 311°
2026-05-05 16:54 43.99587 22.25711 33981 ft 425 kts 311°
2026-05-05 16:55 44.03424 22.19467 34008 ft 426 kts 311°
2026-05-05 16:55 44.05346 22.16342 34315 ft 425 kts 311°
2026-05-05 16:55 44.07270 22.13216 34636 ft 424 kts 311°
2026-05-05 16:56 44.09185 22.10100 34931 ft 423 kts 311°
2026-05-05 16:56 44.11094 22.06987 35213 ft 423 kts 311°
2026-05-05 16:56 44.13001 22.03871 35476 ft 422 kts 311°
2026-05-05 16:56 44.14898 22.00761 35722 ft 422 kts 310°
2026-05-05 16:57 44.16794 21.97649 35937 ft 422 kts 310°
2026-05-05 16:57 44.18693 21.94536 35976 ft 421 kts 310°
2026-05-05 16:57 44.22485 21.88320 35976 ft 421 kts 310°
2026-05-05 16:58 44.26278 21.82081 35972 ft 422 kts 310°
2026-05-05 16:58 44.30072 21.75817 35962 ft 423 kts 310°
2026-05-05 16:59 44.33857 21.69551 35964 ft 422 kts 310°
2026-05-05 16:59 44.37620 21.63320 35970 ft 422 kts 310°
2026-05-05 17:00 44.41412 21.57031 35971 ft 423 kts 310°
2026-05-05 17:00 44.45201 21.50725 35976 ft 423 kts 310°
2026-05-05 17:01 44.48982 21.44417 35963 ft 423 kts 310°
2026-05-05 17:01 44.52758 21.38111 35967 ft 422 kts 310°
2026-05-05 17:02 44.56530 21.31795 35962 ft 423 kts 310°
2026-05-05 17:02 44.60309 21.25467 35952 ft 423 kts 310°
2026-05-05 17:03 44.64086 21.19116 35945 ft 423 kts 309°
2026-05-05 17:03 44.67850 21.12756 35950 ft 423 kts 309°
2026-05-05 17:04 44.71611 21.06400 35956 ft 423 kts 309°
2026-05-05 17:04 44.75368 21.00040 35950 ft 422 kts 309°
2026-05-05 17:05 44.79118 20.93677 35944 ft 422 kts 309°
2026-05-05 17:05 44.82863 20.87304 35947 ft 422 kts 309°
2026-05-05 17:06 44.86607 20.80927 35953 ft 422 kts 309°
2026-05-05 17:06 44.90311 20.74594 35950 ft 421 kts 309°
2026-05-05 17:07 44.94037 20.68204 35949 ft 421 kts 309°
2026-05-05 17:07 44.97759 20.61816 35952 ft 421 kts 308°
2026-05-05 17:08 45.01481 20.55414 35958 ft 421 kts 308°
2026-05-05 17:08 45.05193 20.49018 35959 ft 421 kts 308°
2026-05-05 17:09 45.08907 20.42607 35951 ft 421 kts 308°
2026-05-05 17:09 45.12610 20.36195 35964 ft 421 kts 308°
2026-05-05 17:10 45.16310 20.29764 35955 ft 421 kts 308°
2026-05-05 17:10 45.20007 20.23330 35950 ft 421 kts 308°
2026-05-05 17:11 45.23701 20.16881 35954 ft 421 kts 308°
2026-05-05 17:11 45.27398 20.10412 35954 ft 422 kts 308°
2026-05-05 17:12 45.31096 20.03937 35953 ft 422 kts 308°
2026-05-05 17:12 45.34787 19.97455 35951 ft 422 kts 308°
2026-05-05 17:13 45.38477 19.90963 35948 ft 422 kts 308°
2026-05-05 17:13 45.42173 19.84456 35948 ft 423 kts 308°
2026-05-05 17:14 45.45836 19.77982 35958 ft 423 kts 307°
2026-05-05 17:14 45.49523 19.71442 35954 ft 423 kts 307°
2026-05-05 17:15 45.53210 19.64882 35946 ft 424 kts 307°
2026-05-05 17:15 45.56899 19.58316 35944 ft 424 kts 307°
2026-05-05 17:16 45.60588 19.51752 35944 ft 424 kts 307°
2026-05-05 17:16 45.64263 19.45164 35945 ft 424 kts 307°
2026-05-05 17:17 45.67939 19.38567 35944 ft 424 kts 307°
2026-05-05 17:17 45.71618 19.31965 35944 ft 424 kts 307°
2026-05-05 17:18 45.75292 19.25344 35946 ft 425 kts 307°
2026-05-05 17:18 45.78960 19.18708 35943 ft 425 kts 307°
2026-05-05 17:19 45.82632 19.12056 35934 ft 426 kts 306°
2026-05-05 17:19 45.86308 19.05376 35933 ft 427 kts 306°
2026-05-05 17:20 45.89991 18.98687 35933 ft 427 kts 307°
2026-05-05 17:20 45.93683 18.91986 35934 ft 428 kts 307°
2026-05-05 17:21 45.97446 18.85357 35934 ft 429 kts 308°
2026-05-05 17:22 46.03156 18.75500 35931 ft 430 kts 308°
2026-05-05 17:22 46.06968 18.68855 35948 ft 430 kts 307°
2026-05-05 17:23 46.10763 18.62200 35952 ft 430 kts 307°
2026-05-05 17:23 46.14554 18.55529 35958 ft 430 kts 307°
2026-05-05 17:24 46.18356 18.48846 35956 ft 431 kts 307°
2026-05-05 17:24 46.22152 18.42148 35955 ft 431 kts 307°
2026-05-05 17:25 46.25940 18.35434 35950 ft 431 kts 307°
2026-05-05 17:25 46.29735 18.28703 35956 ft 432 kts 307°
2026-05-05 17:26 46.33528 18.21963 35954 ft 432 kts 307°
2026-05-05 17:26 46.37309 18.15204 35954 ft 432 kts 307°
2026-05-05 17:27 46.41083 18.08453 35959 ft 432 kts 307°
2026-05-05 17:27 46.44862 18.01677 35960 ft 432 kts 307°
2026-05-05 17:28 46.48636 17.94897 35967 ft 432 kts 307°
2026-05-05 17:28 46.52413 17.88102 35960 ft 433 kts 307°
2026-05-05 17:29 46.56192 17.81291 35954 ft 433 kts 307°
2026-05-05 17:29 46.59968 17.74461 35954 ft 433 kts 307°
2026-05-05 17:30 46.63736 17.67626 35952 ft 433 kts 307°
2026-05-05 17:30 46.67500 17.60781 35954 ft 433 kts 307°
2026-05-05 17:31 46.71267 17.53921 35954 ft 434 kts 307°
2026-05-05 17:31 46.75035 17.47051 35955 ft 433 kts 306°
2026-05-05 17:32 46.78784 17.40169 35959 ft 433 kts 306°
2026-05-05 17:32 46.82523 17.33286 35961 ft 433 kts 306°
2026-05-05 17:33 46.86240 17.26429 35958 ft 433 kts 306°
2026-05-05 17:33 46.89979 17.19525 35953 ft 433 kts 306°
2026-05-05 17:34 46.93679 17.12672 35951 ft 433 kts 306°
2026-05-05 17:34 46.97417 17.05741 35936 ft 433 kts 306°
2026-05-05 17:35 47.01146 16.98807 35932 ft 433 kts 306°
2026-05-05 17:35 47.04870 16.91881 35917 ft 433 kts 306°
2026-05-05 17:36 47.08589 16.84943 35917 ft 432 kts 305°
2026-05-05 17:36 47.12288 16.77990 35911 ft 432 kts 305°
2026-05-05 17:37 47.15986 16.71037 35911 ft 432 kts 305°
2026-05-05 17:37 47.19689 16.64078 35896 ft 432 kts 305°
2026-05-05 17:38 47.23389 16.57108 35900 ft 432 kts 305°
2026-05-05 17:38 47.27073 16.50138 35901 ft 431 kts 304°
2026-05-05 17:39 47.30697 16.43120 35880 ft 430 kts 303°
2026-05-05 17:39 47.34220 16.35993 35867 ft 430 kts 303°
2026-05-05 17:40 47.37735 16.28836 35861 ft 431 kts 303°
2026-05-05 17:40 47.40671 16.22883 35855 ft 432 kts 303°
2026-05-05 17:41 47.44214 16.15735 35846 ft 432 kts 304°
2026-05-05 17:41 47.47748 16.08575 35851 ft 431 kts 303°
2026-05-05 17:42 47.51268 16.01399 35850 ft 431 kts 303°
2026-05-05 17:42 47.54777 15.94223 35849 ft 430 kts 303°
2026-05-05 17:43 47.58289 15.87029 35837 ft 431 kts 304°
2026-05-05 17:43 47.61811 15.79822 35822 ft 432 kts 303°
2026-05-05 17:44 47.65326 15.72584 35814 ft 432 kts 303°
2026-05-05 17:44 47.68833 15.65330 35821 ft 432 kts 303°
2026-05-05 17:45 47.72313 15.58156 35826 ft 430 kts 302°
2026-05-05 17:45 47.75786 15.50952 35821 ft 429 kts 303°
2026-05-05 17:46 47.79244 15.43751 35806 ft 427 kts 301°
2026-05-05 17:46 47.82691 15.36581 35799 ft 426 kts 302°
2026-05-05 17:47 47.86125 15.29399 35766 ft 427 kts 302°
2026-05-05 17:47 47.89575 15.22164 35748 ft 429 kts 302°
2026-05-05 17:48 47.93036 15.14902 35739 ft 430 kts 302°
2026-05-05 17:48 47.96464 15.07663 35744 ft 431 kts 302°
2026-05-05 17:49 47.99916 15.00359 35767 ft 431 kts 302°
2026-05-05 17:49 48.03374 14.93040 35745 ft 432 kts 302°
2026-05-05 17:50 48.06839 14.85703 35740 ft 432 kts 302°
2026-05-05 17:50 48.10300 14.78347 35738 ft 433 kts 302°
2026-05-05 17:51 48.13729 14.71009 35741 ft 433 kts 302°
2026-05-05 17:51 48.17176 14.63609 35744 ft 434 kts 302°
2026-05-05 17:52 48.20633 14.56200 35743 ft 434 kts 302°
2026-05-05 17:52 48.24085 14.48768 35747 ft 434 kts 302°
2026-05-05 17:53 48.27530 14.41312 35750 ft 435 kts 302°
2026-05-05 17:53 48.30974 14.33854 35750 ft 435 kts 302°
2026-05-05 17:54 48.34422 14.26383 35758 ft 435 kts 301°
2026-05-05 17:54 48.37863 14.18913 35755 ft 435 kts 301°
2026-05-05 17:55 48.41296 14.11428 35753 ft 435 kts 301°
2026-05-05 17:55 48.44710 14.03954 35761 ft 435 kts 301°
2026-05-05 17:56 48.48131 13.96450 35754 ft 435 kts 301°
2026-05-05 17:56 48.51550 13.88921 35767 ft 435 kts 301°
2026-05-05 17:57 48.54964 13.81372 35755 ft 436 kts 301°
2026-05-05 17:57 48.58372 13.73824 35761 ft 436 kts 301°
2026-05-05 17:58 48.61795 13.66241 35761 ft 436 kts 301°
2026-05-05 17:58 48.65202 13.58653 35759 ft 437 kts 301°
2026-05-05 17:59 48.68808 13.51225 35768 ft 439 kts 304°
2026-05-05 17:59 48.72614 13.44061 35773 ft 440 kts 305°
2026-05-05 18:00 48.76436 13.36828 35769 ft 440 kts 304°
2026-05-05 18:00 48.80201 13.29511 35769 ft 440 kts 304°
2026-05-05 18:01 48.83941 13.22154 35784 ft 440 kts 304°
2026-05-05 18:01 48.87691 13.14788 35780 ft 441 kts 303°
2026-05-05 18:02 48.91439 13.07389 35770 ft 442 kts 303°
2026-05-05 18:02 48.95183 12.99975 35766 ft 442 kts 303°
2026-05-05 18:03 48.98932 12.92551 35759 ft 442 kts 303°
2026-05-05 18:03 49.02682 12.85127 35769 ft 442 kts 303°
2026-05-05 18:04 49.06432 12.77685 35769 ft 443 kts 304°
2026-05-05 18:04 49.10169 12.70211 35755 ft 443 kts 304°
2026-05-05 18:05 49.13907 12.62731 35774 ft 443 kts 304°
2026-05-05 18:05 49.17637 12.55235 35787 ft 443 kts 304°
2026-05-05 18:06 49.21361 12.47709 35797 ft 444 kts 303°
2026-05-05 18:06 49.25090 12.40162 35778 ft 445 kts 303°
2026-05-05 18:07 49.28835 12.32591 35784 ft 446 kts 303°
2026-05-05 18:07 49.32561 12.25040 35774 ft 447 kts 303°
2026-05-05 18:08 49.36330 12.17361 35783 ft 448 kts 303°
2026-05-05 18:08 49.40077 12.09704 35806 ft 449 kts 303°
2026-05-05 18:09 49.43802 12.02073 35801 ft 450 kts 303°
2026-05-05 18:09 49.47562 11.94376 35801 ft 450 kts 303°
2026-05-05 18:10 49.51319 11.86665 35805 ft 451 kts 303°
2026-05-05 18:10 49.55063 11.78933 35800 ft 451 kts 303°
2026-05-05 18:11 49.58802 11.71182 35827 ft 451 kts 303°
2026-05-05 18:11 49.62546 11.63406 35800 ft 452 kts 303°
2026-05-05 18:12 49.66288 11.55595 35797 ft 453 kts 303°
2026-05-05 18:12 49.70017 11.47803 35778 ft 446 kts 303°
2026-05-05 18:13 49.73674 11.40145 35793 ft 441 kts 303°
2026-05-05 18:13 49.77309 11.32495 35794 ft 442 kts 303°
2026-05-05 18:14 49.80951 11.24814 35810 ft 443 kts 303°
2026-05-05 18:14 49.84596 11.17105 35807 ft 443 kts 303°
2026-05-05 18:15 49.88242 11.09388 35819 ft 444 kts 303°
2026-05-05 18:15 49.91881 11.01646 35825 ft 444 kts 303°
2026-05-05 18:16 49.95513 10.93901 35841 ft 444 kts 302°
2026-05-05 18:16 49.99147 10.86137 35825 ft 445 kts 302°
2026-05-05 18:17 50.02779 10.78350 35818 ft 445 kts 302°
2026-05-05 18:17 50.06404 10.70538 35816 ft 446 kts 302°
2026-05-05 18:18 50.10028 10.62704 35823 ft 446 kts 302°
2026-05-05 18:18 50.13652 10.54850 35839 ft 446 kts 302°
2026-05-05 18:19 50.17270 10.46972 35826 ft 447 kts 302°